Terminal Aerodrome Forecast
Issued by NWS Rapid City, SD

Home | Current Version | Previous Version | Text Only | Print | Product List | Glossary Off
Versions: 1 2 3 4 5 6 7 8 9 10 11 12 13 14 15 16 17

000
FTUS43 KUNR 230500
TAFRAP
TAF
KRAP 230520Z 2306/2406 VRB05KT P6SM SCT200
     FM231300 33013KT P6SM BKN110
     FM231800 33020G30KT P6SM SCT100=

USA.gov is the U.S. government's official web portal to all federal, state and local government web resources and services.